This is the latest recevied weather packets stored in our database for station/object K8GLX. If no packets are shown the sender has not sent any weather packets the latest 10 day(s).
| Time | Temp. | Humidity | Pressure | Rain* | Wind** | Luminosity | Snow |
|---|---|---|---|---|---|---|---|
| 1777645029 | 5° C | 95% | 1012.6 hPa | 0.51 mm | - | 72 W/m² | - |
| 1777644862 | 5° C | 94% | 1012.5 hPa | 0.51 mm | - | 57 W/m² | - |
| 1777644429 | 5° C | 94% | 1012.6 hPa | 0.25 mm | - | 37 W/m² | - |
| 1777644134 | 5.56° C | 94% | 1012.5 hPa | 0.25 mm | - | 28 W/m² | - |
| 1777643829 | 5.56° C | 94% | 1012.5 hPa | 0.25 mm | - | 27 W/m² | - |
| 1777643534 | 5.56° C | 94% | 1012.5 hPa | 0.25 mm | - | 27 W/m² | - |
| 1777643229 | 5.56° C | 95% | 1012.7 hPa | 0.25 mm | - | 23 W/m² | - |
| 1777642935 | 5.56° C | 95% | 1012.5 hPa | 0.25 mm | - | 27 W/m² | - |
| 1777642628 | 5.56° C | 95% | 1012.7 hPa | 0.51 mm | - | 23 W/m² | - |
| 1777642335 | 5.56° C | 95% | 1012.7 hPa | 0.51 mm | - | 18 W/m² | - |
| 1777642028 | 5.56° C | 95% | 1012.6 hPa | 0.76 mm | - | 15 W/m² | - |
| 1777641734 | 5.56° C | 94% | 1012.5 hPa | 0.76 mm | - | 11 W/m² | - |
| 1777641429 | 6.11° C | 94% | 1012.9 hPa | 0.76 mm | - | 9 W/m² | - |
| 1777641135 | 6.11° C | 94% | 1012.8 hPa | 0.76 mm | - | 11 W/m² | - |
| 1777640829 | 6.11° C | 94% | 1012.8 hPa | 0.76 mm | - | 16 W/m² | - |
| 1777640535 | 6.11° C | 94% | 1012.5 hPa | 0.76 mm | - | 26 W/m² | - |
| 1777640229 | 6.11° C | 94% | 1012.6 hPa | 1.02 mm | - | 17 W/m² | - |
| 1777639934 | 6.11° C | 93% | 1012.6 hPa | 1.02 mm | - | 30 W/m² | - |
| 1777639629 | 5.56° C | 93% | 1012.7 hPa | 1.02 mm | - | 19 W/m² | - |
| 1777639334 | 5.56° C | 93% | 1012.9 hPa | 1.02 mm | - | 19 W/m² | - |
| 1777639029 | 5.56° C | 93% | 1012.7 hPa | 1.02 mm | - | 30 W/m² | - |
| 1777638735 | 5.56° C | 93% | 1012.8 hPa | 1.02 mm | - | 18 W/m² | - |
| 1777638429 | 5.56° C | 93% | 1012.7 hPa | 1.02 mm | - | 26 W/m² | - |
| 1777638135 | 6.11° C | 93% | 1012.9 hPa | 0.76 mm | - | 26 W/m² | - |
| 1777637829 | 6.11° C | 92% | 1012.7 hPa | 0.76 mm | - | 26 W/m² | - |
* Rain latest hour (hover to see other rain measurements)
** Current wind speed in m/s (hover to see current wind gust speed)